User: anonymous   Login
Location: Peebles
(55.6412°N, 3.1714°W)
Time: 02:06:54
(UTC+01:00)
Language:

FENGYUN 1C DEB - Orbit

View from above orbital plane
View from above orbital plane
View from above satellite
View from above satellite

Ground track
Ground track

The orbit data is extracted from the following two-line orbital elements,

1 30138U 99025ST  22181.61250903  .00000648  00000-0  36617-3 0  9994
2 30138  98.8776 230.6090 0024273 136.5344  16.7641 14.13588839795484
Epoch (UTC): 30 June 2022 14:42:00
Eccentricity: 0.0024273
inclination: 98.8776°
perigee height: 829 km
apogee height: 864 km
right ascension of ascending node: 230.6090°
argument of perigee: 136.5344°
revolutions per day: 14.13588839
mean anomaly at epoch: 16.7641°
orbit number at epoch: 79548

The dashed part of the orbit path shows where the satellite is in the earth's shadow,  

DLR